Tracking 22882 objects as of 19-Apr-2021
HD Live streaming from Space Station
objects crossing your sky now

IRIDIUM 128

Track IRIDIUM 128 now!
10-day predictions
IRIDIUM 128 is classified as:


NORAD ID: 42811
Int'l Code: 2017-039J
Perigee: 782.7 km
Apogee: 786.9 km
Inclination: 86.4 °
Period: 100.4 minutes
Semi major axis: 7155 km
RCS: Unknown
Launch date: June 25, 2017
Source: United States (US)
Launch site: AIR FORCE WESTERN TEST RANGE (AFWTR)
aabbcc
Your satellite tracking list
Your tracking list is empty




NASA's NSSDC Master Catalog

Two Line Element Set (TLE):
1 42811U 17039J   21108.50564129  .00000089  00000-0  24799-4 0  9992
2 42811  86.3927  93.2104 0002978  87.3193 272.8343 14.34217402199702
Source of the keplerian elements: AFSPC